Location: Esp�n
(42.4593°N, 0.2047°W)
Time: 00:46:30
(UTC+00:00)

Cosmos 1408 - Visible Passes

Search period start: 14 June 2021 00:00
Search period end: 24 June 2021 00:00
Orbit: 468 x 490 km, 82.6° (Epoch: 13 June)

Date Brightness Start Highest point End Pass type
(mag) Time Alt. Az. Time Alt. Az. Time Alt. Az.
14 Jun 2.5 01:21:35 75° E 01:21:35 75° E 01:25:15 10° NNE visible
15 Jun 3.5 00:55:32 40° E 00:55:32 40° E 00:58:48 10° NNE visible
15 Jun 4.9 02:29:48 12° W 02:30:32 12° WNW 02:32:06 10° NW visible
16 Jun 4.4 00:29:28 24° E 00:29:28 24° E 00:32:09 10° NE visible
16 Jun 4.3 02:03:44 19° W 02:04:03 20° WNW 02:06:48 10° NNW visible
17 Jun 5.0 00:03:23 15° E 00:03:23 15° E 00:05:06 10° NE visible
17 Jun 3.7 01:37:39 32° WNW 01:37:39 32° WNW 01:40:58 10° NNW visible
18 Jun 3.0 01:11:33 54° WNW 01:11:33 54° WNW 01:14:54 10° N visible
19 Jun 2.9 00:45:26 64° NNE 00:45:26 64° NNE 00:48:38 10° N visible
20 Jun 3.6 00:19:19 40° ENE 00:19:19 40° ENE 00:22:12 10° NNE visible
20 Jun 5.0 01:53:34 11° WNW 01:53:54 11° WNW 01:55:12 10° NW visible
20 Jun 4.3 23:53:11 24° ENE 23:53:11 24° ENE 23:55:35 10° NNE visible
21 Jun 4.6 01:27:26 18° WNW 01:27:26 18° WNW 01:30:03 10° NNW visible
21 Jun 4.9 23:27:02 15° ENE 23:27:02 15° ENE 23:28:37 10° NE visible
22 Jun 4.0 01:01:17 29° WNW 01:01:17 29° WNW 01:04:16 10° NNW visible
23 Jun 3.4 00:35:07 46° NW 00:35:07 46° NW 00:38:12 10° N visible
